QPF
0.00 0.00 0.00 0.00 0.00 0.00 0.00 0.00 0.00 0.00 0.00 0.00 0.00 0.00 0.00 0.00 0.00 0.00 0.00 0.00 0.00 0.00 0.00 0.00 0.00 0.00 0.00 0.00 0.00 0.00 0.00 0.01 0.01 0.02 0.03 0.06 0.08 0.11
0.00 0.00 0.00 0.00 0.00 0.00 0.00 0.00 0.00 0.00 0.00 0.00 0.00 0.00 0.00 0.00 0.00 0.00 0.00 0.00 0.00 0.00 0.00 0.00 0.00 0.00 0.00 0.00 0.00 0.00 0.00 0.00 0.01 0.01 0.01 0.02 0.02 0.04
0.00 0.00 0.00 0.00 0.00 0.00 0.00 0.00 0.00 0.00 0.00 0.00 0.00 0.00 0.00 0.00 0.00 0.00 0.00 0.00 0.00 0.00 0.00 0.00 0.00 0.00 0.00 0.00 0.00 0.00 0.00 0.00 0.00 0.00 0.01 0.01 0.02 0.02
0.00 0.01 0.00 0.01 0.00 0.00 0.00 0.00 0.00 0.00 0.00 0.00 0.00 0.00 0.00 0.00 0.00 0.00 0.00 0.00 0.00 0.00 0.00 0.00 0.00 0.00 0.00 0.00 0.00 0.00 0.00 0.00 0.00 0.00 0.00 0.01 0.01 0.01
0.01 0.01 0.01 0.01 0.01 0.01 0.01 0.01 0.01 0.01 0.00 0.00 0.00 0.00 0.00 0.00 0.00 0.00 0.00 0.00 0.00 0.00 0.00 0.00 0.00 0.00 0.00 0.00 0.00 0.00 0.00 0.00 0.00 0.00 0.00 0.00 0.00 0.01
0.02 0.02 0.01 0.01 0.01 0.01 0.01 0.01 0.02 0.02 0.01 0.01 0.00 0.00 0.00 0.00 0.00 0.00 0.00 0.00 0.00 0.00 0.00 0.00 0.00 0.00 0.00 0.00 0.00 0.00 0.00 0.00 0.00 0.00 0.00 0.00 0.00 0.00
0.01 0.01 0.01 0.01 0.01 0.01 0.01 0.01 0.01 0.01 0.01 0.01 0.00 0.00 0.00 0.00 0.00 0.00 0.00 0.00 0.00 0.00 0.00 0.00 0.00 0.00 0.00 0.00 0.00 0.00 0.00 0.00 0.00 0.00 0.00 0.00 0.00 0.00
0.01 0.01 0.01 0.00 0.01 0.01 0.01 0.01 0.02 0.01 0.01 0.01 0.01 0.00 0.00 0.01 0.01 0.01 0.00 0.00 0.00 0.00 0.00 0.00 0.00 0.00 0.00 0.00 0.00 0.00 0.00 0.00 0.00 0.00 0.00 0.00 0.00 0.00
0.01 0.00 0.00 0.00 0.00 0.00 0.01 0.02 0.02 0.01 0.01 0.01 0.01 0.00 0.01 0.01 0.01 0.01 0.01 0.01 0.00 0.00 0.00 0.00 0.00 0.00 0.00 0.00 0.00 0.00 0.00 0.00 0.00 0.00 0.00 0.00 0.00 0.00
0.01 0.01 0.01 0.01 0.01 0.01 0.01 0.01 0.01 0.00 0.00 0.01 0.01 0.01 0.00 0.00 0.01 0.01 0.01 0.00 0.00 0.00 0.00 0.00 0.00 0.00 0.00 0.00 0.00 0.00 0.00 0.00 0.00 0.00 0.00 0.00 0.00 0.00
0.02 0.02 0.02 0.01 0.01 0.01 0.01 0.01 0.00 0.00 0.00 0.01 0.01 0.00 0.00 0.00 0.01 0.01 0.01 0.01 0.00 0.00 0.00 0.00 0.00 0.00 0.00 0.00 0.00 0.00 0.00 0.00 0.00 0.00 0.00 0.00 0.00 0.00
0.05 0.05 0.05 0.03 0.03 0.03 0.02 0.01 0.01 0.00 0.01 0.01 0.01 0.00 0.00 0.00 0.00 0.01 0.01 0.01 0.01 0.00 0.00 0.00 0.00 0.01 0.00 0.00 0.00 0.00 0.00 0.00 0.00 0.00 0.00 0.00 0.00 0.00
0.08 0.07 0.06 0.06 0.05 0.04 0.03 0.02 0.01 0.01 0.01 0.01 0.01 0.00 0.00 0.00 0.00 0.01 0.01 0.01 0.01 0.00 0.00 0.01 0.01 0.01 0.01 0.00 0.00 0.00 0.00 0.00 0.00 0.00 0.00 0.00 0.00 0.00
0.09 0.07 0.06 0.05 0.03 0.02 0.01 0.01 0.01 0.01 0.01 0.00 0.00 0.00 0.00 0.00 0.00 0.00 0.01 0.01 0.02 0.01 0.01 0.02 0.02 0.02 0.02 0.01 0.00 0.00 0.00 0.00 0.00 0.00 0.00 0.00 0.00 0.00
0.05 0.04 0.03 0.02 0.02 0.01 0.01 0.00 0.00 0.00 0.00 0.00 0.00 0.00 0.00 0.00 0.01 0.01 0.01 0.02 0.02 0.02 0.02 0.03 0.04 0.04 0.04 0.02 0.01 0.00 0.00 0.00 0.00 0.00 0.00 0.00 0.00 0.00
0.04 0.04 0.04 0.03 0.02 0.01 0.01 0.01 0.00 0.00 0.01 0.01 0.01 0.01 0.01 0.01 0.01 0.02 0.02 0.02 0.03 0.02 0.02 0.03 0.04 0.06 0.05 0.03 0.02 0.01 0.00 0.00 0.00 0.00 0.01 0.01 0.01 0.00
0.06 0.04 0.03 0.02 0.01 0.01 0.00 0.00 0.00 0.01 0.01 0.01 0.01 0.01 0.01 0.01 0.02 0.02 0.03 0.03 0.03 0.02 0.02 0.02 0.04 0.06 0.06 0.06 0.03 0.01 0.01 0.01 0.01 0.00 0.00 0.00 0.00 0.00
0.03 0.02 0.01 0.01 0.00 0.00 0.00 0.00 0.00 0.00 0.01 0.01 0.01 0.01 0.02 0.02 0.02 0.02 0.04 0.04 0.04 0.03 0.03 0.03 0.06 0.08 0.07 0.04 0.04 0.03 0.02 0.01 0.01 0.01 0.01 0.01 0.00 0.00
0.01 0.01 0.01 0.01 0.01 0.01 0.01 0.01 0.01 0.01 0.01 0.02 0.03 0.03 0.03 0.04 0.05 0.05 0.05 0.06 0.06 0.05 0.05 0.06 0.07 0.09 0.06 0.03 0.01 0.02 0.02 0.01 0.01 0.01 0.01 0.01 0.00 0.00
0.01 0.01 0.01 0.01 0.01 0.01 0.01 0.02 0.02 0.01 0.01 0.02 0.03 0.04 0.04 0.05 0.06 0.06 0.06 0.07 0.06 0.05 0.04 0.05 0.06 0.07 0.07 0.05 0.03 0.02 0.03 0.03 0.02 0.01 0.01 0.01 0.01 0.01
0.01 0.00 0.00 0.00 0.00 0.00 0.01 0.01 0.01 0.01 0.01 0.02 0.02 0.03 0.04 0.05 0.05 0.05 0.05 0.05 0.05 0.05 0.04 0.03 0.03 0.06 0.08 0.08 0.06 0.03 0.02 0.02 0.02 0.02 0.02 0.02 0.01 0.01
0.00 0.00 0.00 0.00 0.00 0.01 0.01 0.01 0.01 0.01 0.01 0.02 0.02 0.03 0.03 0.05 0.06 0.06 0.06 0.07 0.07 0.06 0.04 0.03 0.03 0.07 0.09 0.08 0.05 0.03 0.02 0.02 0.02 0.03 0.02 0.02 0.02 0.01
0.01 0.01 0.01 0.00 0.00 0.01 0.01 0.01 0.01 0.02 0.02 0.02 0.03 0.04 0.05 0.05 0.06 0.06 0.06 0.06 0.06 0.06 0.05 0.04 0.04 0.06 0.07 0.07 0.05 0.04 0.03 0.03 0.03 0.03 0.02 0.02 0.02 0.01
MSLP
1018.72 1019.24 1019.76 1020.23 1020.62 1020.89 1021.02 1021.02 1020.90 1020.69 1020.42 1020.12 1019.80 1019.47 1019.14 1018.81 1018.48 1018.17 1017.88 1017.63 1017.44 1017.30 1017.21 1017.18 1017.17 1017.16 1017.14 1017.08 1017.00 1016.89 1016.80 1016.72 1016.70 1016.75 1016.87 1017.05 1017.28 1017.51
1018.55 1019.02 1019.48 1019.90 1020.25 1020.49 1020.63 1020.65 1020.59 1020.44 1020.24 1020.00 1019.74 1019.44 1019.13 1018.79 1018.44 1018.09 1017.75 1017.45 1017.21 1017.03 1016.92 1016.86 1016.84 1016.83 1016.81 1016.77 1016.70 1016.62 1016.54 1016.48 1016.47 1016.52 1016.63 1016.80 1017.01 1017.22
1018.35 1018.76 1019.15 1019.51 1019.80 1020.02 1020.15 1020.20 1020.18 1020.11 1019.98 1019.82 1019.61 1019.36 1019.07 1018.74 1018.38 1018.00 1017.62 1017.28 1017.00 1016.78 1016.63 1016.55 1016.51 1016.49 1016.48 1016.45 1016.40 1016.34 1016.28 1016.24 1016.25 1016.31 1016.43 1016.60 1016.79 1016.99
1018.10 1018.43 1018.75 1019.04 1019.28 1019.47 1019.60 1019.68 1019.71 1019.71 1019.66 1019.57 1019.43 1019.24 1018.98 1018.67 1018.31 1017.92 1017.53 1017.16 1016.84 1016.58 1016.40 1016.29 1016.22 1016.19 1016.16 1016.13 1016.08 1016.03 1015.98 1015.96 1015.99 1016.06 1016.19 1016.36 1016.56 1016.75
1017.77 1018.01 1018.25 1018.47 1018.67 1018.83 1018.97 1019.08 1019.16 1019.22 1019.25 1019.23 1019.17 1019.03 1018.83 1018.55 1018.22 1017.84 1017.44 1017.06 1016.72 1016.44 1016.23 1016.08 1015.98 1015.91 1015.85 1015.79 1015.73 1015.67 1015.62 1015.60 1015.63 1015.71 1015.84 1016.02 1016.22 1016.42
1017.34 1017.49 1017.65 1017.80 1017.95 1018.10 1018.24 1018.38 1018.51 1018.62 1018.72 1018.77 1018.77 1018.70 1018.55 1018.33 1018.04 1017.69 1017.32 1016.96 1016.62 1016.33 1016.09 1015.90 1015.76 1015.64 1015.53 1015.43 1015.32 1015.23 1015.16 1015.12 1015.14 1015.21 1015.34 1015.52 1015.72 1015.93
1016.79 1016.85 1016.93 1017.03 1017.14 1017.26 1017.40 1017.56 1017.72 1017.88 1018.02 1018.13 1018.18 1018.17 1018.09 1017.92 1017.69 1017.40 1017.08 1016.76 1016.45 1016.16 1015.92 1015.70 1015.51 1015.34 1015.17 1015.00 1014.84 1014.69 1014.58 1014.51 1014.50 1014.55 1014.67 1014.84 1015.05 1015.27
1016.15 1016.14 1016.14 1016.18 1016.24 1016.34 1016.47 1016.63 1016.80 1016.98 1017.14 1017.28 1017.38 1017.41 1017.38 1017.28 1017.11 1016.90 1016.65 1016.39 1016.13 1015.88 1015.64 1015.41 1015.19 1014.96 1014.73 1014.50 1014.27 1014.06 1013.89 1013.78 1013.73 1013.76 1013.86 1014.02 1014.23 1014.46
1015.49 1015.40 1015.34 1015.32 1015.34 1015.40 1015.50 1015.64 1015.79 1015.95 1016.11 1016.25 1016.35 1016.41 1016.42 1016.37 1016.28 1016.15 1015.99 1015.80 1015.61 1015.41 1015.20 1014.98 1014.74 1014.48 1014.20 1013.91 1013.62 1013.36 1013.13 1012.97 1012.89 1012.89 1012.97 1013.13 1013.33 1013.56
1014.86 1014.71 1014.60 1014.53 1014.50 1014.52 1014.57 1014.65 1014.76 1014.88 1014.99 1015.09 1015.18 1015.23 1015.26 1015.25 1015.22 1015.16 1015.08 1014.99 1014.88 1014.74 1014.58 1014.38 1014.15 1013.88 1013.57 1013.25 1012.92 1012.61 1012.35 1012.16 1012.05 1012.02 1012.09 1012.23 1012.42 1012.65
1014.36 1014.17 1014.01 1013.89 1013.81 1013.77 1013.76 1013.78 1013.80 1013.84 1013.88 1013.92 1013.95 1013.98 1014.00 1014.01 1014.01 1014.01 1014.01 1013.99 1013.96 1013.89 1013.79 1013.63 1013.43 1013.17 1012.86 1012.53 1012.19 1011.87 1011.59 1011.38 1011.26 1011.22 1011.27 1011.40 1011.58 1011.80
1014.02 1013.81 1013.62 1013.46 1013.33 1013.22 1013.14 1013.07 1013.00 1012.94 1012.89 1012.84 1012.80 1012.76 1012.75 1012.75 1012.77 1012.81 1012.85 1012.90 1012.92 1012.92 1012.88 1012.78 1012.61 1012.39 1012.11 1011.80 1011.47 1011.16 1010.89 1010.69 1010.56 1010.52 1010.56 1010.68 1010.84 1011.03
1013.86 1013.65 1013.44 1013.24 1013.05 1012.88 1012.71 1012.55 1012.38 1012.22 1012.06 1011.91 1011.78 1011.68 1011.61 1011.58 1011.59 1011.64 1011.71 1011.78 1011.86 1011.90 1011.91 1011.86 1011.74 1011.56 1011.33 1011.06 1010.78 1010.50 1010.26 1010.08 1009.96 1009.92 1009.95 1010.04 1010.18 1010.34
1013.84 1013.62 1013.39 1013.16 1012.92 1012.68 1012.43 1012.18 1011.92 1011.66 1011.40 1011.16 1010.94 1010.77 1010.64 1010.56 1010.54 1010.57 1010.63 1010.72 1010.81 1010.88 1010.92 1010.91 1010.85 1010.72 1010.55 1010.33 1010.10 1009.87 1009.67 1009.52 1009.41 1009.37 1009.39 1009.45 1009.55 1009.66
1013.87 1013.64 1013.39 1013.12 1012.83 1012.53 1012.21 1011.88 1011.53 1011.19 1010.85 1010.53 1010.24 1010.00 1009.82 1009.69 1009.63 1009.62 1009.66 1009.73 1009.82 1009.90 1009.95 1009.97 1009.95 1009.87 1009.75 1009.60 1009.43 1009.25 1009.09 1008.96 1008.87 1008.82 1008.81 1008.84 1008.89 1008.94
1013.86 1013.61 1013.33 1013.01 1012.67 1012.31 1011.92 1011.52 1011.12 1010.71 1010.32 1009.95 1009.61 1009.33 1009.10 1008.93 1008.82 1008.78 1008.78 1008.82 1008.88 1008.95 1009.01 1009.05 1009.05 1009.02 1008.95 1008.85 1008.73 1008.61 1008.48 1008.37 1008.29 1008.22 1008.18 1008.16 1008.14 1008.13
1013.71 1013.43 1013.11 1012.74 1012.35 1011.92 1011.48 1011.03 1010.58 1010.14 1009.71 1009.32 1008.97 1008.66 1008.41 1008.21 1008.08 1007.99 1007.96 1007.96 1007.99 1008.04 1008.09 1008.13 1008.15 1008.15 1008.12 1008.07 1008.00 1007.91 1007.82 1007.72 1007.63 1007.54 1007.45 1007.37 1007.30 1007.22
1013.39 1013.06 1012.69 1012.26 1011.80 1011.32 1010.83 1010.34 1009.87 1009.41 1008.99 1008.60 1008.25 1007.95 1007.70 1007.50 1007.35 1007.24 1007.17 1007.14 1007.14 1007.16 1007.19 1007.23 1007.26 1007.28 1007.28 1007.27 1007.23 1007.17 1007.09 1007.00 1006.89 1006.77 1006.65 1006.51 1006.37 1006.24
1012.90 1012.53 1012.09 1011.61 1011.09 1010.55 1010.02 1009.50 1009.01 1008.56 1008.15 1007.79 1007.47 1007.20 1006.97 1006.78 1006.62 1006.50 1006.41 1006.36 1006.33 1006.33 1006.34 1006.37 1006.41 1006.44 1006.46 1006.47 1006.45 1006.41 1006.34 1006.24 1006.12 1005.97 1005.80 1005.62 1005.43 1005.24
1012.32 1011.90 1011.41 1010.86 1010.29 1009.71 1009.14 1008.60 1008.11 1007.67 1007.29 1006.96 1006.68 1006.45 1006.25 1006.08 1005.94 1005.82 1005.72 1005.65 1005.60 1005.58 1005.58 1005.59 1005.62 1005.66 1005.69 1005.70 1005.69 1005.66 1005.58 1005.48 1005.33 1005.16 1004.95 1004.74 1004.51 1004.29
1011.73 1011.27 1010.74 1010.15 1009.53 1008.91 1008.32 1007.77 1007.28 1006.86 1006.51 1006.22 1005.98 1005.79 1005.62 1005.48 1005.36 1005.25 1005.15 1005.06 1005.00 1004.95 1004.93 1004.93 1004.94 1004.96 1004.99 1005.00 1004.98 1004.94 1004.86 1004.74 1004.57 1004.37 1004.15 1003.91 1003.66 1003.43
1011.22 1010.74 1010.18 1009.56 1008.92 1008.28 1007.68 1007.13 1006.65 1006.24 1005.92 1005.66 1005.46 1005.30 1005.17 1005.05 1004.94 1004.83 1004.72 1004.62 1004.54 1004.47 1004.42 1004.39 1004.38 1004.37 1004.37 1004.36 1004.33 1004.27 1004.17 1004.02 1003.84 1003.62 1003.38 1003.13 1002.88 1002.65
1010.84 1010.35 1009.79 1009.17 1008.52 1007.88 1007.28 1006.74 1006.27 1005.89 1005.59 1005.35 1005.18 1005.04 1004.92 1004.82 1004.71 1004.59 1004.47 1004.34 1004.23 1004.12 1004.03 1003.96 1003.91 1003.87 1003.83 1003.78 1003.72 1003.62 1003.49 1003.32 1003.12 1002.88 1002.63 1002.37 1002.13 1001.91
Thickness
5715 5713 5711 5709 5708 5706 5703 5699 5691 5685 5685 5691 5695 5699 5699 5697 5696 5694 5692 5691 5689 5688 5686 5685 5683 5683 5682 5681 5681 5680 5680 5680 5680 5681 5681 5682 5683 5683
5712 5710 5708 5706 5704 5702 5700 5697 5693 5687 5682 5687 5690 5693 5694 5693 5692 5690 5689 5688 5686 5685 5683 5682 5681 5680 5679 5678 5677 5677 5676 5676 5676 5676 5676 5677 5678 5678
5708 5706 5704 5702 5699 5697 5696 5693 5689 5685 5680 5683 5685 5688 5688 5687 5687 5686 5685 5683 5682 5681 5680 5679 5678 5677 5676 5675 5674 5673 5672 5672 5671 5671 5672 5672 5673 5673
5704 5702 5700 5698 5695 5693 5691 5688 5686 5683 5679 5677 5679 5681 5682 5682 5682 5681 5680 5680 5678 5678 5677 5676 5675 5674 5673 5672 5671 5670 5669 5668 5667 5667 5667 5667 5667 5667
5701 5698 5696 5694 5690 5688 5686 5684 5682 5680 5677 5674 5673 5674 5675 5676 5675 5675 5675 5674 5674 5674 5673 5672 5671 5670 5669 5668 5668 5667 5665 5664 5663 5663 5662 5662 5662 5662
5698 5696 5693 5690 5687 5685 5682 5680 5677 5674 5671 5668 5667 5667 5667 5668 5667 5665 5666 5667 5667 5669 5668 5667 5666 5665 5664 5664 5663 5662 5661 5660 5659 5659 5658 5657 5657 5657
5693 5692 5690 5688 5685 5682 5679 5676 5673 5668 5665 5662 5661 5660 5660 5659 5658 5659 5658 5659 5660 5661 5661 5661 5661 5660 5659 5659 5658 5657 5657 5656 5655 5654 5654 5653 5652 5652
5687 5686 5684 5683 5681 5678 5676 5674 5670 5665 5661 5657 5656 5654 5655 5654 5653 5652 5650 5648 5648 5654 5652 5653 5653 5653 5653 5653 5653 5652 5652 5652 5651 5650 5649 5649 5648 5647
5682 5679 5678 5678 5675 5672 5670 5668 5665 5663 5660 5656 5652 5651 5650 5650 5647 5645 5643 5642 5643 5645 5642 5644 5645 5645 5648 5648 5648 5647 5647 5647 5646 5646 5645 5644 5643 5642
5677 5674 5672 5671 5669 5665 5663 5660 5659 5657 5654 5651 5649 5649 5648 5646 5643 5640 5639 5637 5638 5637 5634 5633 5638 5639 5642 5642 5642 5642 5642 5641 5641 5641 5640 5639 5638 5637
5670 5668 5665 5663 5662 5658 5654 5651 5650 5650 5649 5647 5645 5644 5642 5640 5637 5631 5628 5624 5626 5630 5627 5624 5630 5631 5633 5634 5635 5635 5635 5635 5635 5634 5634 5633 5632 5631
5661 5659 5657 5654 5652 5648 5644 5641 5639 5641 5639 5638 5637 5635 5634 5632 5630 5625 5622 5617 5617 5619 5622 5617 5619 5618 5620 5626 5627 5627 5627 5627 5628 5627 5627 5627 5625 5622
5652 5650 5648 5645 5641 5638 5634 5632 5632 5631 5629 5627 5626 5625 5625 5623 5622 5619 5616 5613 5611 5612 5614 5609 5609 5608 5607 5613 5616 5617 5617 5618 5619 5619 5620 5620 5619 5616
5642 5641 5638 5635 5631 5628 5625 5624 5622 5619 5617 5615 5615 5615 5615 5614 5614 5612 5610 5608 5607 5607 5608 5603 5600 5599 5597 5600 5603 5606 5607 5608 5608 5610 5611 5612 5611 5610
5632 5629 5626 5623 5620 5618 5616 5615 5612 5609 5606 5604 5605 5606 5606 5605 5604 5603 5601 5599 5598 5598 5598 5595 5593 5592 5589 5590 5594 5596 5596 5598 5598 5600 5601 5601 5602 5602
5619 5617 5615 5612 5609 5607 5606 5604 5601 5599 5596 5595 5595 5595 5594 5593 5591 5590 5588 5587 5586 5588 5588 5586 5585 5582 5581 5582 5583 5586 5587 5587 5590 5590 5591 5593 5595 5595
5606 5603 5600 5597 5595 5594 5592 5591 5589 5586 5584 5583 5582 5581 5580 5579 5578 5577 5574 5573 5572 5575 5577 5577 5576 5575 5575 5574 5575 5578 5578 5579 5581 5581 5580 5583 5587 5589
5591 5588 5586 5583 5581 5580 5578 5577 5575 5573 5571 5569 5567 5565 5565 5564 5564 5563 5561 5560 5561 5563 5565 5566 5564 5563 5563 5567 5569 5569 5571 5572 5574 5573 5573 5574 5580 5584
5576 5574 5572 5570 5568 5566 5564 5562 5560 5559 5557 5555 5553 5552 5551 5551 5550 5550 5549 5549 5550 5552 5554 5554 5552 5550 5551 5558 5565 5563 5563 5566 5565 5566 5567 5568 5573 5579
5562 5560 5558 5556 5554 5552 5550 5548 5547 5546 5543 5542 5540 5539 5538 5538 5538 5538 5539 5538 5540 5541 5543 5544 5543 5544 5545 5550 5556 5559 5559 5558 5559 5561 5563 5564 5567 5572
5550 5547 5545 5543 5541 5539 5537 5535 5533 5531 5530 5528 5527 5526 5526 5526 5527 5527 5528 5528 5528 5531 5533 5537 5540 5540 5541 5541 5544 5552 5555 5555 5556 5557 5558 5557 5560 5562
5537 5535 5533 5530 5528 5526 5525 5523 5521 5519 5518 5516 5516 5515 5515 5515 5516 5517 5517 5518 5520 5523 5526 5531 5533 5533 5534 5536 5541 5546 5549 5551 5553 5554 5555 5557 5556 5559
5525 5522 5520 5518 5516 5514 5513 5511 5510 5509 5508 5507 5507 5506 5506 5506 5507 5507 5509 5510 5513 5517 5520 5524 5527 5529 5531 5533 5537 5540 5543 5545 5547 5548 5551 5554 5555 5559